Powrót do katalogu

COSMOS 2251 DEB

AktywnyLEO
NORAD 35645·DEBRIS·🇷🇺 Russia

Wystrzelony Jun 16, 1993 z Plesetsk Cosmodrome

Loading…

Następne Przeloty (najbliższe 24 godziny)

TLE

ŚwieżeSource: Space-Track

Epoka: Sep 13, 2026, 12:17 UTC

1 35645U 93036ANL 26256.51197124  .00002735  00000-0  72144-3 0  9993
2 35645  73.9623 291.8568 0066854  21.0185 339.3698 14.48122811907469

Śledź COSMOS 2251 DEB w czasie rzeczywistym z AllMySat

Download on the App Store